Wind_Speed
11 12 15 18 19 20 19 21 23 23 23 20 17 16 13 14 13 17 14 10 8 7 12 22 23 16 17 12 12 14 9 2 9 8 9 10 11 10 10 6 1 3 5 5 6
14 14 14 16 18 21 23 24 25 25 25 24 21 18 16 14 13 14 16 12 8 11 17 23 9 2 5 21 14 2 7 6 5 6 4 7 7 11 9 8 6 4 1 4 5
18 17 16 16 18 19 21 24 26 28 28 27 25 22 18 16 15 17 17 14 10 13 21 21 18 18 17 24 17 10 9 4 2 4 4 3 9 8 10 9 8 5 4 3 1
22 21 21 19 19 20 21 23 25 28 29 29 28 25 22 20 19 18 18 16 16 17 26 24 18 19 18 8 7 10 9 1 2 3 3 3 7 9 9 8 8 7 5 3 3
24 25 24 23 22 22 22 23 24 25 27 30 30 28 25 21 17 19 21 19 19 19 22 18 12 15 18 3 8 5 2 2 3 3 1 3 7 8 8 9 9 10 10 9 10
24 25 27 27 26 25 24 24 26 26 27 27 29 30 26 19 25 23 22 22 20 20 19 19 25 21 17 8 18 1 5 3 3 4 3 5 7 8 7 9 11 12 13 13 12
23 21 29 28 30 28 27 26 26 27 28 28 29 28 26 20 26 22 24 28 22 23 20 23 22 18 15 11 8 4 5 5 4 3 8 7 7 9 8 10 12 14 14 14 13
27 26 25 26 31 32 30 29 29 29 30 30 29 29 22 27 27 22 23 24 22 22 20 20 18 9 22 16 12 12 5 7 9 4 6 6 9 9 8 10 9 11 15 17 18
29 29 30 28 26 34 34 33 33 31 32 32 31 28 21 31 21 25 26 26 26 22 21 18 17 12 19 16 11 7 7 4 7 12 10 6 12 6 7 8 9 13 15 18 19
35 33 32 32 30 28 34 35 38 37 35 34 33 27 28 30 30 31 27 29 28 27 25 20 18 13 20 11 13 16 24 14 13 10 6 13 8 6 4 6 10 13 14 16 15
43 40 38 35 34 33 33 36 40 42 36 33 33 30 32 32 30 31 32 30 31 33 28 23 22 16 21 15 18 8 28 20 20 7 10 12 6 7 6 2 8 11 12 13 12
51 48 45 42 39 37 38 39 36 42 38 36 35 31 33 32 32 33 37 36 35 31 28 30 22 18 15 6 7 4 21 22 17 10 8 4 11 13 9 4 4 9 12 13 13
57 56 53 50 46 43 44 44 36 35 41 40 37 34 34 35 34 33 36 35 33 32 32 27 19 23 17 14 13 7 17 22 15 10 3 4 8 12 11 7 4 7 9 15 13
63 62 61 57 53 51 47 42 37 39 40 37 41 35 39 34 37 36 34 35 36 31 30 26 24 29 21 23 5 11 16 10 9 8 5 5 11 8 9 9 3 7 9 11 13
64 67 66 64 61 58 53 47 46 44 44 35 41 37 35 38 26 34 35 38 37 30 37 26 30 34 23 17 12 8 3 12 10 10 8 9 15 9 8 12 5 6 11 11 15
68 67 68 71 66 65 58 54 53 51 47 31 38 43 43 41 36 35 38 38 35 37 36 30 30 34 26 19 17 10 10 15 14 12 13 16 12 16 14 3 6 3 10 12 12
66 70 71 70 69 70 67 63 60 59 46 34 35 42 43 40 38 40 40 43 42 43 43 36 37 37 29 23 27 24 21 22 22 15 12 12 18 17 17 13 4 4 6 10 11
60 65 69 71 73 74 73 71 69 55 48 38 32 35 40 42 40 40 42 42 44 43 37 38 41 42 38 31 23 27 27 17 9 15 10 7 10 15 18 18 8 5 7 5 7
56 59 60 67 72 77 79 80 68 60 51 45 39 39 34 38 41 44 43 42 43 43 42 40 37 39 44 34 29 27 34 20 13 15 7 7 14 16 18 15 10 7 9 8 4
47 54 54 60 63 78 86 83 73 66 59 54 42 35 25 27 39 47 46 44 43 43 39 39 38 37 37 34 34 35 35 30 30 26 22 11 18 19 17 17 12 12 9 9 8
36 39 41 50 58 75 88 87 81 74 65 62 58 49 43 32 23 41 47 43 43 42 41 39 39 36 37 42 38 40 42 38 34 33 26 18 14 14 21 16 13 14 14 10 12
27 27 32 35 49 64 83 89 87 81 71 70 68 61 55 42 35 33 46 47 43 43 48 43 45 38 40 36 35 35 43 38 36 35 26 23 23 27 23 19 19 19 20 20 13
23 23 25 30 42 51 70 84 88 85 75 69 66 65 60 51 45 37 32 45 43 44 49 44 48 40 30 31 38 42 35 40 40 36 34 23 10 5 21 25 23 26 13 13 14
17 17 19 21 28 41 60 83 90 89 80 75 69 69 64 56 49 42 38 37 41 46 44 47 47 48 43 37 29 40 32 41 38 41 33 25 16 10 11 26 25 20 13 14 18
13 14 15 7 25 33 45 66 86 91 80 80 73 75 66 62 60 52 44 37 37 41 40 50 57 49 42 35 27 30 31 29 46 42 40 29 19 17 21 24 25 24 21 19 17
10 14 18 5 13 29 33 50 71 85 82 82 73 76 74 70 66 57 53 46 45 42 44 44 57 51 45 40 37 35 32 29 28 43 41 34 25 16 21 25 19 26 27 22 21
10 11 14 15 12 14 19 26 50 70 82 87 77 77 76 75 71 64 58 52 47 45 46 43 51 57 53 44 41 34 40 32 26 37 44 40 27 22 20 18 26 22 20 22 27
Wind_Direction
226 217 212 214 209 208 206 204 204 202 201 194 189 184 181 180 179 191 188 177 171 115 114 128 121 122 112 95 1 40 90 267 330 1 24 47 57 53 63 73 9 256 249 223 205
237 233 225 219 220 217 213 208 209 209 209 206 200 196 191 187 175 171 185 185 174 136 125 122 81 229 164 44 94 86 59 295 352 318 18 60 63 72 69 55 49 45 266 240 216
242 239 236 231 225 224 221 220 217 215 211 212 211 204 200 192 183 178 177 180 175 148 138 126 121 85 30 55 46 357 332 329 7 315 343 64 68 56 56 46 31 20 341 355 21
243 243 240 237 234 230 225 224 223 223 220 218 217 214 206 199 196 182 177 175 168 154 133 141 125 105 97 60 9 307 348 294 16 19 329 55 59 69 55 44 27 28 15 23 56
247 242 243 241 238 234 232 227 226 226 227 224 223 220 214 203 197 195 185 182 172 159 154 151 143 117 46 72 279 271 344 359 58 60 57 52 67 53 43 44 30 37 62 64 68
251 247 242 242 241 237 235 232 228 228 228 227 225 225 216 192 213 190 195 192 182 171 157 140 145 135 81 225 244 208 26 23 73 73 63 61 64 62 56 60 51 52 77 85 84
259 256 244 243 240 239 236 234 232 228 229 229 228 224 210 202 212 196 201 191 193 178 160 149 171 177 160 177 212 224 132 119 98 94 110 40 62 64 62 75 67 67 78 91 94
255 255 253 247 241 239 238 235 233 231 229 229 228 224 203 217 208 190 199 205 196 188 177 167 183 189 186 208 189 166 112 160 139 140 58 35 72 43 55 89 88 92 94 92 92
256 255 252 250 247 239 239 236 235 231 229 228 228 222 203 217 200 193 200 197 200 186 172 173 178 186 229 206 157 179 179 124 106 60 5 63 52 29 74 86 85 93 95 98 101
256 252 252 249 247 245 240 238 236 233 227 226 228 221 214 216 204 202 202 199 200 196 187 181 182 193 194 178 178 194 206 154 135 171 213 71 36 36 69 93 108 105 107 104 103
253 251 249 247 245 243 243 240 237 235 230 227 228 220 216 217 209 207 205 204 201 203 195 191 197 187 191 186 231 194 150 143 97 67 99 4 71 77 74 77 114 119 118 112 108
251 249 247 245 243 242 242 242 241 239 231 229 226 218 226 219 214 205 208 206 207 205 197 199 196 163 165 196 347 206 103 105 86 56 83 13 73 54 69 66 112 126 124 115 110
245 246 245 243 241 239 238 240 239 243 234 230 227 218 227 217 216 214 211 208 209 206 202 207 172 175 179 189 204 103 117 110 81 95 34 331 102 51 31 38 73 116 130 120 95
242 241 240 241 238 237 239 241 241 243 242 221 229 221 222 220 214 213 211 211 212 204 207 203 182 183 185 182 237 270 93 58 62 133 71 327 300 301 349 9 58 119 129 112 84
246 239 237 235 238 235 235 235 235 236 240 228 225 223 218 224 215 220 214 212 209 202 206 191 186 184 174 167 208 245 233 160 195 154 189 211 252 265 331 38 18 113 117 101 93
249 243 236 234 234 234 233 229 232 233 235 231 227 224 221 220 210 212 214 214 210 205 210 199 192 187 168 180 187 193 150 202 249 211 198 201 271 303 333 24 57 144 123 109 102
254 246 240 233 233 230 228 226 227 229 229 223 236 223 220 222 217 215 214 210 211 207 205 197 197 189 169 189 190 196 220 182 200 216 138 156 231 293 296 322 63 165 155 126 120
258 250 243 236 233 228 226 223 225 228 226 224 230 232 223 221 216 220 217 213 209 212 212 206 198 195 174 192 190 204 190 192 208 160 114 129 219 255 293 304 289 196 151 144 140
261 257 251 239 230 228 225 224 223 224 221 211 223 228 224 218 215 223 219 217 214 211 209 213 210 198 183 183 195 214 221 184 193 168 225 217 239 250 273 293 288 218 180 160 166
261 259 258 248 232 224 223 220 218 216 215 194 192 204 233 227 218 216 220 213 211 214 213 213 217 206 192 186 198 208 211 195 205 212 212 217 212 251 271 296 308 293 224 187 177
268 263 257 247 236 223 220 218 216 214 212 207 198 198 198 208 233 223 217 216 212 208 212 212 216 204 199 200 202 208 204 201 202 208 202 210 243 175 249 268 314 285 275 236 214
276 269 257 248 237 224 218 215 215 212 208 209 207 202 205 195 204 213 221 215 214 206 211 206 215 204 212 207 202 222 212 201 206 200 197 200 221 205 212 250 267 268 275 260 241
277 267 256 247 240 224 217 214 213 210 203 204 205 199 192 188 201 204 223 208 214 210 206 201 213 208 194 212 212 219 217 205 202 197 188 202 179 331 194 229 239 253 230 251 263
272 262 259 249 231 222 214 212 210 210 201 201 197 196 194 187 199 198 203 220 205 215 207 200 206 212 201 207 219 223 218 213 205 202 183 188 178 232 229 216 234 241 233 248 273
271 252 214 244 219 221 220 213 211 206 199 200 196 195 195 187 198 195 197 202 205 208 210 206 204 210 205 193 216 235 235 223 213 199 194 178 182 239 202 211 225 241 256 265 277
253 240 219 226 219 221 217 214 210 207 196 198 195 195 199 191 195 188 192 194 192 204 215 210 208 204 204 192 195 221 243 235 235 204 196 177 194 215 246 225 247 257 258 275 281
248 244 235 218 151 181 217 212 209 208 193 193 189 195 198 194 191 188 188 190 186 195 212 214 208 196 199 185 189 195 224 241 238 206 199 187 183 213 231 222 240 244 257 281 285
Height
5879 5880 5881 5882 5884 5885 5887 5889 5891 5893 5896 5898 5900 5902 5903 5904 5906 5908 5911 5913 5915 5918 5919 5919 5920 5920 5918 5916 5912 5912 5917 5918 5917 5916 5914 5915 5912 5912 5913 5913 5912 5912 5913 5914 5914
5877 5878 5879 5881 5882 5883 5885 5886 5888 5890 5893 5895 5898 5900 5902 5903 5905 5908 5911 5912 5914 5918 5920 5921 5926 5922 5917 5915 5913 5917 5918 5919 5920 5919 5920 5917 5915 5916 5917 5915 5914 5914 5913 5914 5915
5874 5875 5877 5878 5879 5881 5882 5884 5885 5887 5889 5892 5894 5897 5899 5902 5905 5906 5907 5910 5913 5918 5919 5922 5924 5923 5917 5919 5921 5923 5923 5923 5923 5923 5922 5918 5920 5919 5917 5917 5915 5915 5914 5914 5915
5871 5872 5873 5875 5876 5877 5879 5880 5882 5884 5886 5889 5891 5894 5897 5899 5903 5906 5908 5910 5913 5917 5918 5921 5923 5920 5915 5919 5921 5924 5924 5924 5923 5924 5924 5921 5919 5919 5920 5920 5917 5916 5915 5915 5915
5866 5867 5868 5870 5872 5873 5875 5877 5879 5880 5882 5885 5887 5890 5893 5898 5902 5904 5906 5909 5911 5915 5917 5920 5922 5918 5919 5923 5925 5924 5925 5925 5924 5925 5925 5924 5922 5921 5920 5920 5919 5918 5917 5917 5917
5859 5861 5863 5865 5866 5868 5870 5872 5874 5876 5878 5880 5883 5885 5890 5897 5896 5900 5904 5907 5909 5913 5916 5919 5921 5918 5920 5923 5924 5925 5926 5927 5926 5926 5927 5926 5925 5924 5923 5922 5922 5921 5920 5921 5920
5854 5855 5857 5859 5861 5863 5865 5867 5869 5872 5874 5876 5878 5880 5887 5895 5894 5899 5901 5901 5907 5911 5914 5917 5920 5916 5918 5919 5919 5926 5926 5927 5928 5929 5931 5929 5927 5926 5925 5924 5924 5923 5922 5922 5923
5848 5848 5850 5851 5854 5857 5859 5861 5863 5865 5868 5871 5873 5877 5885 5886 5890 5896 5898 5903 5905 5909 5915 5916 5919 5918 5914 5917 5921 5922 5926 5928 5928 5928 5928 5929 5928 5928 5927 5928 5927 5927 5927 5926 5926
5841 5841 5843 5845 5847 5850 5852 5854 5855 5858 5861 5864 5867 5873 5882 5880 5890 5893 5895 5899 5903 5907 5912 5915 5918 5918 5914 5919 5922 5923 5927 5928 5927 5926 5927 5928 5929 5932 5932 5930 5930 5930 5931 5931 5931
5832 5833 5834 5837 5840 5842 5844 5846 5847 5849 5854 5858 5862 5871 5875 5877 5881 5886 5892 5895 5900 5904 5908 5912 5915 5917 5916 5917 5918 5922 5923 5927 5927 5929 5929 5929 5933 5934 5934 5934 5934 5934 5933 5933 5933
5821 5823 5825 5828 5831 5834 5836 5836 5840 5842 5849 5855 5858 5864 5867 5871 5877 5883 5886 5891 5895 5898 5904 5909 5912 5914 5916 5923 5921 5921 5924 5928 5926 5925 5928 5934 5934 5935 5936 5938 5936 5936 5935 5935 5936
5807 5810 5813 5817 5820 5824 5826 5827 5832 5836 5842 5846 5851 5858 5861 5867 5872 5875 5879 5885 5889 5896 5903 5904 5907 5914 5917 5916 5920 5919 5921 5926 5926 5926 5927 5937 5936 5935 5937 5940 5938 5938 5937 5937 5938
5791 5795 5800 5803 5809 5812 5812 5815 5824 5826 5833 5839 5845 5851 5855 5860 5867 5872 5874 5881 5886 5893 5896 5901 5909 5912 5914 5917 5919 5921 5924 5920 5926 5930 5933 5936 5935 5936 5937 5939 5939 5939 5940 5940 5939
5771 5777 5783 5788 5796 5798 5804 5811 5819 5819 5821 5836 5836 5845 5847 5854 5859 5865 5870 5877 5880 5889 5894 5898 5905 5908 5912 5910 5916 5918 5923 5924 5927 5934 5937 5934 5934 5936 5938 5938 5940 5940 5941 5942 5942
5749 5758 5764 5773 5778 5784 5793 5801 5804 5808 5809 5827 5829 5839 5843 5845 5860 5861 5866 5867 5874 5884 5886 5895 5899 5904 5907 5911 5919 5915 5917 5931 5937 5938 5940 5940 5938 5938 5938 5939 5940 5941 5941 5942 5943
5727 5734 5744 5752 5761 5767 5780 5787 5789 5797 5800 5817 5819 5826 5833 5838 5848 5852 5858 5864 5873 5876 5881 5890 5897 5900 5904 5911 5918 5924 5929 5932 5934 5936 5936 5937 5938 5936 5938 5940 5941 5942 5942 5943 5944
5703 5710 5721 5732 5741 5749 5759 5767 5774 5778 5800 5813 5812 5819 5828 5834 5841 5844 5850 5853 5861 5865 5871 5881 5888 5896 5901 5908 5913 5922 5925 5925 5930 5933 5935 5936 5938 5936 5939 5941 5940 5943 5944 5944 5946
5680 5686 5696 5709 5716 5729 5739 5747 5755 5779 5792 5805 5805 5812 5819 5827 5833 5837 5842 5848 5854 5860 5872 5876 5880 5887 5893 5902 5911 5917 5920 5924 5927 5933 5934 5935 5935 5938 5938 5939 5939 5941 5944 5945 5947
5659 5664 5673 5680 5693 5705 5716 5723 5750 5768 5783 5796 5799 5800 5808 5816 5825 5828 5834 5843 5851 5856 5863 5870 5878 5887 5889 5898 5907 5912 5915 5921 5924 5928 5932 5935 5937 5936 5936 5938 5939 5940 5943 5946 5947
5641 5646 5652 5655 5666 5677 5689 5714 5735 5750 5762 5775 5778 5791 5800 5807 5813 5817 5824 5836 5843 5852 5860 5867 5875 5880 5888 5893 5899 5905 5913 5916 5917 5922 5926 5931 5933 5935 5934 5936 5937 5940 5943 5945 5948
5624 5631 5630 5633 5640 5652 5673 5697 5715 5730 5746 5759 5765 5772 5782 5793 5803 5810 5818 5829 5837 5847 5853 5863 5867 5877 5882 5883 5891 5898 5903 5908 5914 5917 5922 5927 5929 5933 5934 5936 5937 5937 5940 5944 5946
5614 5618 5617 5617 5623 5638 5655 5672 5689 5708 5728 5738 5749 5760 5771 5780 5786 5792 5806 5816 5828 5838 5842 5854 5860 5865 5873 5880 5888 5892 5899 5904 5907 5914 5918 5922 5924 5928 5927 5934 5938 5940 5938 5942 5944
5604 5606 5604 5605 5611 5622 5634 5649 5667 5689 5712 5726 5742 5753 5758 5768 5774 5783 5795 5810 5819 5827 5834 5848 5850 5860 5867 5877 5880 5883 5892 5899 5904 5910 5913 5918 5924 5925 5928 5935 5936 5938 5937 5940 5941
5597 5597 5597 5596 5601 5604 5611 5624 5646 5670 5696 5711 5730 5742 5750 5760 5766 5778 5787 5801 5809 5818 5829 5840 5846 5849 5855 5866 5876 5878 5884 5893 5898 5903 5910 5914 5918 5920 5928 5930 5932 5934 5936 5937 5939
5590 5591 5591 5591 5592 5596 5604 5614 5630 5649 5682 5695 5714 5732 5741 5750 5754 5765 5779 5792 5801 5810 5819 5827 5833 5844 5853 5862 5871 5874 5879 5886 5891 5899 5903 5912 5917 5923 5926 5928 5929 5931 5934 5936 5934
5585 5585 5587 5587 5588 5592 5596 5607 5618 5639 5661 5681 5702 5723 5728 5737 5742 5752 5764 5779 5787 5804 5811 5819 5825 5839 5845 5854 5863 5869 5875 5880 5885 5893 5900 5907 5913 5920 5920 5923 5923 5927 5929 5930 5932
5583 5583 5584 5585 5586 5592 5599 5602 5610 5621 5642 5659 5684 5700 5711 5717 5724 5741 5756 5769 5780 5789 5802 5810 5817 5828 5836 5847 5856 5858 5866 5873 5880 5886 5894 5899 5908 5915 5915 5917 5918 5920 5921 5924 5924